This is the latest recevied weather packets stored in our database for station/object OE3CJB-13. If no packets are shown the sender has not sent any weather packets the latest 10 day(s).
| Time | Temp. | Humidity | Pressure | Rain* | Wind** | Luminosity | Snow |
|---|---|---|---|---|---|---|---|
| 1777482037 | 13.33° C | - | 770 hPa | 0 mm | - | - | - |
| 1777481123 | 13.89° C | - | 768.4 hPa | 0 mm | - | - | - |
| 1777480264 | 15° C | - | 768.2 hPa | 0 mm | - | - | - |
| 1777479442 | 16.11° C | - | 766.5 hPa | 0 mm | - | - | - |
| 1777478438 | 16.11° C | - | 765.7 hPa | 0 mm | - | - | - |
| 1777477571 | 16.67° C | - | 766.5 hPa | 0 mm | - | - | - |
| 1777476708 | 16.67° C | - | 765.8 hPa | 0 mm | - | - | - |
| 1777475795 | 16.67° C | - | 764.2 hPa | 0 mm | - | - | - |
| 1777474838 | 16.67° C | - | 765.1 hPa | 0 mm | - | - | - |
| 1777473923 | 16.67° C | - | 765.1 hPa | 0 mm | - | - | - |
| 1777473064 | 16.67° C | - | 765.9 hPa | 0 mm | - | - | - |
| 1777472147 | 16.67° C | - | 765.9 hPa | 0 mm | - | - | - |
| 1777471237 | 16.67° C | - | 766 hPa | 0 mm | - | - | - |
| 1777470323 | 16.67° C | - | 767.5 hPa | 0 mm | - | - | - |
| 1777469555 | 16.67° C | - | 768.3 hPa | 0 mm | - | - | - |
| 1777468643 | 16.67° C | - | 768.3 hPa | 0 mm | - | - | - |
| 1777467638 | 16.11° C | - | 768.3 hPa | 0 mm | - | - | - |
| 1777466723 | 16.11° C | - | 767.5 hPa | 0 mm | - | - | - |
| 1777465864 | 16.11° C | - | 767.6 hPa | 0 mm | - | - | - |
| 1777464947 | 16.11° C | - | 766.8 hPa | 0 mm | - | - | - |
| 1777464042 | 15.56° C | - | 767.6 hPa | 0 mm | - | - | - |
| 1777463123 | 15.56° C | - | 766.8 hPa | 0 mm | - | - | - |
| 1777462308 | 15.56° C | - | 766.1 hPa | 0 mm | - | - | - |
| 1777461347 | 15.56° C | - | 766.9 hPa | 0 mm | - | - | - |
| 1777460437 | 15° C | - | 766.9 hPa | 0 mm | - | - | - |
* Rain latest hour (hover to see other rain measurements)
** Current wind speed in m/s (hover to see current wind gust speed)